Weather in Aleksandrow Kujawski

Poland     52°52′35″N   18°41′38″E
temp.,
°C
wind,
m/s
gust,
m/s
humid.,
%
clouds,
%
prec.,
mm/h
press.,
hPa
HPBL,
m
5 december, sun
sun501:000ese3784100 0.0 1004172
04:000ese3876100 0.0 1003204
07:000ese51066100 0.0 1004294
10:00+1e4962100 0.0 1006405
13:000e4788100 0.6 1006403
16:00−1ene3897100 2.1 1007424
19:00−1ne489677 2.8 1008410
22:00−1ne4796100 0.1 1009326
6 december, mon
mon601:00−1ne4897100 0.3 1010393
04:00−1ne4895100 0.2 1011414
07:00−2nne5992100 0.4 1012369
10:00−2nne4792100 0.3 1014344
13:00−2nne4684100 0.4 1014481
16:00−3nne478570 0.0 1015411
19:00−5n37905 0.0 1015280
22:00−5nne25905 0.0 1015235
7 december, tue
tue701:00−6n25906 0.0 1014204
04:00−6nne24906 0.0 1014186
07:00−6nne24905 0.0 1014142
10:00−5ne23825 0.0 1015276
13:00−4ne227867 0.0 1015405
16:00−6ne119110 0.0 101513
19:00−6e249028 0.0 1015103
22:00−6e2592100 0.0 1016124
8 december, wed
wed801:00−7e2592100 0.0 1016146
04:00−7e37925 0.0 1015214
07:00−7ese49916 0.0 1015281
10:00−6ese59855 0.0 1015349
13:00−4e59815 0.0 1013442
16:00−6e511875 0.0 1013382
19:00−6e6138898 0.0 1013385
22:00−6e61386100 0.0 1013484
9 december, thu
thu901:00−6e71488100 0.0 1012445
04:00−6e71588100 0.0 1010478
07:00−5ese71487100 0.0 1010488
10:00−4ese61291100 1.1 1010428
13:00−3ese5993100 1.8 1009386
16:00−2ese5991100 0.1 1010337
19:00−3e3693100 0.1 1009183
22:00−3e4792100 0.0 1009239